Location: Jetmore
(38.0845°N, 99.8935°W)
Time: 20:24:25
(UTC+00:00)

Nauka - Pass Details

Date: 18 September 2021
Orbit: 418 x 423 km, 51.6° (Epoch: 21 October)

Event Time Altitude Azimuth Distance (km) Brightness Sun altitude
Rises 03:20:46 0° 279° (W) 2,359 ? -30.3°
Reaches altitude 10° 03:23:38 10° 306° (NW) 1,499 ? -30.8°
Enters shadow 03:24:21 12° 317° (NW) 1,364 ? -30.9°
